Simultaneous Nadir Overpasses (SNOs) Predictions

Prediction of SNOs between GOES-16 and NOAA-19 Satellite Orbit:

Table of predicted SNOs for the next 14.0 days since TLE Epoch: 12/30/2023
Index Date Time (GOES-16) GOES-16 Lat,Lon NOAA-19 Lat,Lon Distance(km) Time Diff (sec)
1 12/31/2023 14:10:19 -0.04, -75.23 0.48, -77.50 259.12 80
2 01/01/2024 13:55:30 -0.04, -75.24 -0.21, -74.55 79.26 80
3 01/02/2024 13:43:20 -0.04, -75.25 -0.89, -71.59 417.80 80
4 01/04/2024 02:18:05 0.03, -75.23 -0.91, -79.28 462.12 80
5 01/05/2024 02:05:55 0.03, -75.24 -0.20, -76.32 123.24 80
6 01/06/2024 01:51:05 0.03, -75.25 0.45, -73.36 215.75 80
7 01/08/2024 14:13:26 -0.03, -75.31 0.59, -78.04 311.71 80
8 01/09/2024 13:58:36 -0.03, -75.32 -0.10, -75.09 27.34 80
9 01/10/2024 13:46:26 -0.03, -75.33 -0.75, -72.12 366.32 80
